EW5660 Weather Reports


Display with metric or nautical units.
time (UTC)temp
F
wind
direction
speed
MPH
gust
MPH
rain 1hr
in
rain 24hr
in
rain mn
in
humidity
%
barometer
mb
20180722011226 70 84 0.0 0.0 0.00 0.02 0.02 89 1008.6
20180722011104 70 84 0.0 5.0 0.00 0.02 0.02 89 1008.6
20180722010942 70 84 0.0 5.0 0.00 0.02 0.02 89 1008.6
20180722010824 70 84 0.0 5.0 0.00 0.02 0.02 89 1008.6
20180722010701 70 84 0.0 5.0 0.00 0.02 0.02 89 1008.5
20180722010539 70 84 0.0 5.0 0.00 0.02 0.02 89 1008.5
20180722010416 70 84 2.0 5.0 0.00 0.02 0.02 89 1008.6
20180722010258 70 84 2.0 5.0 0.00 0.02 0.02 89 1008.5
20180722010137 70 84 0.0 1.0 0.00 0.02 0.02 89 1008.5
20180722010015 70 84 0.0 1.0 0.00 0.02 0.02 89 1008.5
20180722005854 70 84 0.0 1.0 0.00 0.02 0.02 89 1008.5
20180722005731 70 86 0.0 1.0 0.00 0.02 0.02 89 1008.5
20180722005612 70 86 0.0 1.0 0.00 0.02 0.02 89 1008.5
20180722005448 70 86 0.0 1.0 0.00 0.02 0.02 89 1008.5
20180722005326 70 86 0.0 6.0 0.00 0.02 0.02 89 1008.5
20180722005203 70 86 0.0 6.0 0.00 0.02 0.02 89 1008.6
20180722005043 70 86 0.0 6.0 0.00 0.02 0.02 89 1008.6
20180722004919 70 86 0.0 6.0 0.00 0.02 0.02 89 1008.6
20180722004756 70 86 0.0 6.0 0.00 0.02 0.02 89 1008.5
20180722004635 70 86 1.0 6.0 0.00 0.02 0.02 89 1008.5
20180722004515 70 86 1.0 6.0 0.00 0.02 0.02 89 1008.5
20180722004352 70 74 0.0 3.0 0.00 0.02 0.02 89 1008.5
20180722004227 70 74 0.0 3.0 0.00 0.02 0.02 89 1008.5
20180722004105 70 74 0.0 4.0 0.00 0.02 0.02 89 1008.5
20180722003941 70 74 0.0 4.0 0.00 0.02 0.02 89 1008.5
20180722003823 70 74 0.0 4.0 0.00 0.02 0.02 89 1008.4
20180722003700 70 74 0.0 4.0 0.00 0.02 0.02 89 1008.4
20180722003537 70 74 0.0 4.0 0.00 0.02 0.02 89 1008.4
20180722003412 70 74 1.0 4.0 0.00 0.02 0.02 89 1008.4
20180722003249 70 74 3.0 5.0 0.00 0.02 0.02 89 1008.4
20180722003127 70 74 1.0 5.0 0.00 0.02 0.02 89 1008.4
20180722003004 70 82 0.0 5.0 0.00 0.02 0.02 89 1008.3
20180722002841 70 82 0.0 5.0 0.00 0.02 0.02 89 1008.4
20180722002722 70 81 0.0 7.0 0.00 0.02 0.02 89 1008.4
20180722002600 70 78 1.0 7.0 0.00 0.02 0.02 89 1008.3
20180722002437 70 103 0.0 7.0 0.00 0.02 0.02 89 1008.3
20180722002314 70 104 0.0 7.0 0.00 0.02 0.02 89 1008.4
20180722002151 70 103 0.0 7.0 0.00 0.02 0.02 89 1008.3
20180722002032 70 103 2.0 7.0 0.00 0.02 0.02 89 1008.3
20180722001908 70 103 3.0 7.0 0.00 0.02 0.02 89 1008.3
20180722001744 70 111 2.0 7.0 0.00 0.02 0.02 89 1008.3
20180722001622 70 125 3.0 7.0 0.00 0.02 0.02 89 1008.3
20180722001502 70 110 2.0 7.0 0.00 0.02 0.02 89 1008.3
20180722001337 70 80 1.0 5.0 0.00 0.02 0.02 89 1008.3
20180722001213 70 77 2.0 5.0 0.00 0.02 0.02 89 1008.2
20180722001050 70 130 0.0 4.0 0.00 0.02 0.02 89 1008.3
20180722000931 70 130 0.0 5.0 0.00 0.02 0.02 89 1008.2
20180722000807 70 130 0.0 5.0 0.00 0.02 0.02 89 1008.2
20180722000645 70 134 0.0 5.0 0.00 0.02 0.02 89 1008.2
20180722000520 70 134 0.0 5.0 0.00 0.02 0.02 89 1008.3
20180722000358 70 134 0.0 5.0 0.00 0.02 0.02 89 1008.3
20180722000238 70 135 1.0 5.0 0.00 0.02 0.02 89 1008.2
20180722000116 70 138 1.0 5.0 0.00 0.02 0.02 89 1008.2
20180721235953 70 89 0.0 0.0 0.00 0.02 0.02 89 1008.3
20180721235830 70 89 0.0 3.0 0.00 0.02 0.02 89 1008.3
20180721235709 70 89 0.0 6.0 0.00 0.02 0.02 89 1008.3
20180721235545 70 89 0.0 6.0 0.00 0.02 0.02 89 1008.3
20180721235423 70 89 0.0 6.0 0.00 0.02 0.02 89 1008.3
20180721235301 70 89 0.0 6.0 0.00 0.02 0.02 89 1008.3
20180721235142 70 89 0.0 6.0 0.00 0.02 0.02 89 1008.3
20180721235019 70 89 1.0 6.0 0.00 0.02 0.02 88 1008.3
20180721234856 70 109 0.0 5.0 0.00 0.02 0.02 89 1008.2
20180721234731 70 108 0.0 5.0 0.00 0.02 0.02 89 1008.3
20180721234608 70 108 0.0 5.0 0.00 0.02 0.02 89 1008.2
20180721234450 70 108 0.0 5.0 0.00 0.02 0.02 88 1008.2
20180721234327 70 108 2.0 5.0 0.00 0.02 0.02 88 1008.2
20180721234202 70 108 2.0 5.0 0.00 0.02 0.02 89 1008.2
20180721234040 70 98 0.0 5.0 0.00 0.02 0.02 89 1008.1
20180721233920 70 121 0.0 5.0 0.00 0.02 0.02 89 1008.1
20180721233758 70 121 0.0 5.0 0.00 0.02 0.02 89 1008.1
20180721233633 70 76 0.0 5.0 0.00 0.02 0.02 89 1008.1
20180721233510 70 76 0.0 5.0 0.00 0.02 0.02 89 1008.1
20180721233352 70 76 0.0 9.0 0.00 0.02 0.02 89 1008.1
20180721233228 70 62 0.0 9.0 0.00 0.02 0.02 89 1008.1
20180721233103 70 64 0.0 10.0 0.00 0.02 0.02 89 1008.1
20180721232941 70 64 1.0 10.0 0.00 0.02 0.02 89 1008.1
20180721232817 70 79 2.0 10.0 0.00 0.02 0.02 89 1008.1
20180721232659 70 89 6.0 10.0 0.00 0.02 0.02 88 1008.1
20180721232534 70 77 4.0 10.0 0.00 0.02 0.02 88 1008.1
20180721232410 70 101 5.0 10.0 0.00 0.02 0.02 88 1008.1
20180721232248 70 81 4.0 10.0 0.00 0.02 0.02 89 1008.2
20180721232129 70 86 2.0 10.0 0.00 0.02 0.02 89 1008.1
20180721232006 70 113 2.0 10.0 0.00 0.02 0.02 89 1008.2
20180721231841 70 71 1.0 10.0 0.00 0.02 0.02 89 1008.1
20180721231718 70 78 4.0 10.0 0.00 0.02 0.02 88 1008.2
20180721231557 70 79 4.0 10.0 0.00 0.02 0.02 89 1008.1
20180721231435 70 109 4.0 10.0 0.00 0.02 0.02 89 1008.1
20180721231310 70 132 4.0 8.0 0.00 0.02 0.02 89 1008.1
20180721231147 70 110 1.0 7.0 0.00 0.02 0.02 89 1008.1
20180721231024 70 96 3.0 7.0 0.00 0.02 0.02 89 1008.1
20180721230903 70 86 4.0 9.0 0.00 0.02 0.02 89 1008.1
20180721230738 70 74 3.0 9.0 0.00 0.02 0.02 89 1008.1
20180721230615 70 90 1.0 11.0 0.00 0.02 0.02 89 1008.1
20180721230450 70 126 1.0 11.0 0.00 0.02 0.02 89 1008.1
20180721230330 70 80 2.0 11.0 0.00 0.02 0.02 89 1008.1
20180721230208 70 87 2.0 11.0 0.00 0.02 0.02 89 1008.1
20180721230043 70 108 2.0 11.0 0.00 0.02 0.02 89 1008.1
20180721225920 70 106 2.0 11.0 0.00 0.02 0.02 89 1008.1
20180721225757 70 100 7.0 11.0 0.00 0.02 0.02 89 1008.1
20180721225632 70 57 3.0 9.0 0.00 0.02 0.02 89 1008.1
20180721225510 70 85 1.0 8.0 0.00 0.02 0.02 89 1008.1
20180721225347 70 80 1.0 8.0 0.00 0.02 0.02 89 1008.0
20180721225220 70 95 1.0 8.0 0.00 0.02 0.02 89 1008.1
20180721225101 70 92 3.0 8.0 0.00 0.02 0.02 89 1008.0
20180721224937 70 69 2.0 7.0 0.00 0.02 0.02 89 1008.0
20180721224815 70 76 2.0 7.0 0.00 0.02 0.02 90 1008.0
20180721224653 70 98 1.0 6.0 0.00 0.02 0.02 90 1008.0
20180721224531 70 87 1.0 5.0 0.00 0.02 0.02 90 1008.0
20180721224407 70 90 2.0 5.0 0.00 0.02 0.02 90 1008.0
20180721224243 70 117 2.0 5.0 0.00 0.02 0.02 90 1008.0
20180721224117 70 90 2.0 8.0 0.00 0.02 0.02 90 1007.9
20180721223959 70 92 1.0 8.0 0.00 0.02 0.02 90 1007.9
20180721223832 70 98 0.0 8.0 0.00 0.02 0.02 90 1007.9
20180721223709 70 86 0.0 8.0 0.00 0.02 0.02 90 1008.0
20180721223546 70 92 0.0 8.0 0.00 0.02 0.02 90 1008.0
20180721223421 70 90 2.0 8.0 0.00 0.02 0.02 90 1008.0
20180721223303 70 84 1.0 8.0 0.00 0.02 0.02 90 1008.0
20180721223141 70 98 2.0 8.0 0.00 0.02 0.02 89 1008.1
20180721223017 70 109 4.0 8.0 0.00 0.02 0.02 89 1008.1
20180721222855 70 99 2.0 8.0 0.00 0.02 0.02 89 1008.1
20180721222737 70 73 2.0 10.0 0.00 0.02 0.02 90 1008.0
20180721222612 70 100 3.0 15.0 0.00 0.02 0.02 89 1008.0
20180721222449 70 105 4.0 15.0 0.00 0.02 0.02 89 1008.0
20180721222326 70 128 3.0 15.0 0.00 0.02 0.02 89 1008.0
20180721222206 70 110 4.0 14.0 0.00 0.02 0.02 89 1008.0
20180721222041 71 82 7.0 14.0 0.00 0.02 0.02 88 1008.0
20180721221918 71 107 8.0 14.0 0.00 0.02 0.02 88 1008.0
20180721221753 71 99 6.0 14.0 0.00 0.02 0.02 87 1008.0
20180721221628 71 111 8.0 14.0 0.00 0.02 0.02 87 1008.0
20180721221508 71 96 8.0 14.0 0.00 0.02 0.02 87 1007.9
20180721221346 71 92 5.0 14.0 0.00 0.02 0.02 87 1007.9
20180721221224 71 84 2.0 14.0 0.00 0.02 0.02 87 1007.9
20180721221100 72 117 6.0 14.0 0.00 0.02 0.02 87 1007.9
20180721220939 72 80 7.0 14.0 0.00 0.02 0.02 87 1007.9
20180721220815 72 123 6.0 13.0 0.00 0.02 0.02 87 1007.9
20180721220653 72 69 6.0 13.0 0.00 0.02 0.02 87 1007.9
20180721220532 72 86 7.0 13.0 0.00 0.02 0.02 87 1007.9
20180721220413 72 98 6.0 13.0 0.00 0.02 0.02 87 1007.8
20180721220251 72 72 7.0 13.0 0.00 0.02 0.02 87 1007.8
20180721220128 72 108 6.0 15.0 0.00 0.02 0.02 87 1007.8
20180721220004 72 103 8.0 15.0 0.00 0.02 0.02 87 1007.8
20180721215841 72 114 5.0 15.0 0.00 0.02 0.02 87 1007.8
20180721215721 72 76 5.0 15.0 0.00 0.02 0.02 87 1007.7
20180721215556 72 89 6.0 15.0 0.00 0.02 0.02 87 1007.7
20180721215430 72 126 8.0 15.0 0.00 0.02 0.02 87 1007.7
20180721215305 72 82 7.0 13.0 0.00 0.02 0.02 87 1007.7
20180721215145 72 101 8.0 13.0 0.00 0.02 0.02 87 1007.7
20180721215023 72 101 7.0 13.0 0.00 0.02 0.02 88 1007.7
20180721214900 72 116 4.0 14.0 0.00 0.02 0.02 88 1007.7
20180721214738 72 94 6.0 14.0 0.00 0.02 0.02 88 1007.6
20180721214619 72 74 5.0 14.0 0.00 0.02 0.02 88 1007.6
20180721214456 72 86 2.0 14.0 0.00 0.02 0.02 88 1007.6
20180721214332 72 92 2.0 14.0 0.00 0.02 0.02 88 1007.6
20180721214203 72 88 4.0 14.0 0.00 0.02 0.02 88 1007.6
20180721214039 72 117 7.0 14.0 0.00 0.02 0.02 88 1007.6
20180721213921 72 106 8.0 13.0 0.00 0.02 0.02 88 1007.6
20180721213758 72 87 7.0 13.0 0.00 0.02 0.02 88 1007.6
20180721213636 72 125 6.0 9.0 0.00 0.02 0.02 88 1007.6
20180721213511 72 68 7.0 9.0 0.00 0.02 0.02 88 1007.6
20180721213352 72 113 4.0 10.0 0.00 0.02 0.02 88 1007.5
20180721213228 72 80 1.0 11.0 0.00 0.02 0.02 88 1007.6
20180721213105 72 91 1.0 11.0 0.00 0.02 0.02 89 1007.6
20180721212940 72 116 2.0 11.0 0.00 0.02 0.02 88 1007.6
20180721212820 72 107 1.0 11.0 0.01 0.02 0.02 88 1007.6
20180721212653 72 98 5.0 11.0 0.01 0.02 0.02 88 1007.7
20180721212531 72 98 5.0 11.0 0.01 0.02 0.02 88 1007.6
20180721212408 72 139 2.0 8.0 0.01 0.02 0.02 89 1007.6
20180721212244 72 123 2.0 8.0 0.01 0.02 0.02 89 1007.6
20180721212126 72 76 5.0 8.0 0.01 0.02 0.02 88 1007.6
20180721212004 72 134 4.0 9.0 0.01 0.02 0.02 89 1007.6
20180721211838 72 70 0.0 9.0 0.01 0.02 0.02 89 1007.6
20180721211716 72 96 2.0 10.0 0.01 0.02 0.02 88 1007.6
20180721211556 72 126 4.0 10.0 0.01 0.02 0.02 88 1007.6
20180721211433 72 88 4.0 10.0 0.01 0.02 0.02 88 1007.6
20180721211311 72 75 6.0 10.0 0.01 0.02 0.02 88 1007.6
20180721211145 72 89 5.0 10.0 0.01 0.02 0.02 89 1007.6
20180721211026 72 105 4.0 10.0 0.01 0.02 0.02 89 1007.6
20180721210902 72 107 6.0 10.0 0.01 0.02 0.02 89 1007.7
20180721210740 72 108 6.0 11.0 0.01 0.02 0.02 89 1007.6
20180721210618 72 115 4.0 8.0 0.01 0.02 0.02 90 1007.6
20180721210456 72 106 5.0 8.0 0.01 0.02 0.02 90 1007.6
20180721210336 72 70 4.0 8.0 0.01 0.02 0.02 90 1007.6
20180721210214 72 73 4.0 8.0 0.01 0.02 0.02 90 1007.6
20180721210048 72 105 5.0 8.0 0.01 0.02 0.02 90 1007.5
20180721205925 72 86 2.0 8.0 0.01 0.02 0.02 91 1007.6
20180721205801 72 77 2.0 7.0 0.01 0.02 0.02 90 1007.5
20180721205636 72 133 3.0 8.0 0.01 0.02 0.02 91 1007.5
20180721205512 72 95 5.0 8.0 0.01 0.02 0.02 90 1007.5
20180721205349 72 97 4.0 8.0 0.01 0.02 0.02 90 1007.5
20180721205231 72 90 1.0 7.0 0.01 0.02 0.02 91 1007.5
20180721205108 72 100 0.0 7.0 0.01 0.02 0.02 91 1007.5
20180721204943 72 98 0.0 7.0 0.01 0.02 0.02 91 1007.4
20180721204821 71 98 1.0 7.0 0.01 0.02 0.02 91 1007.4
20180721204658 71 94 1.0 7.0 0.01 0.02 0.02 91 1007.4
20180721204539 71 76 0.0 3.0 0.01 0.02 0.02 91 1007.4
20180721204417 71 76 0.0 4.0 0.01 0.02 0.02 90 1007.4
20180721204253 71 76 0.0 4.0 0.01 0.02 0.02 90 1007.4
20180721204130 71 71 0.0 4.0 0.01 0.02 0.02 91 1007.4
20180721204011 71 71 0.0 4.0 0.01 0.02 0.02 90 1007.4
20180721203847 71 71 0.0 4.0 0.01 0.02 0.02 89 1007.4
20180721203724 71 76 1.0 4.0 0.01 0.02 0.02 88 1007.4
20180721203600 71 76 1.0 10.0 0.01 0.02 0.02 88 1007.4
20180721203443 72 73 0.0 10.0 0.01 0.02 0.02 88 1007.4
20180721203319 72 79 0.0 10.0 0.01 0.02 0.02 87 1007.4
20180721203153 72 80 0.0 14.0 0.01 0.02 0.02 87 1007.4
20180721203031 72 87 1.0 14.0 0.01 0.02 0.02 85 1007.4
20180721202908 73 86 5.0 14.0 0.00 0.01 0.01 84 1007.4
20180721202749 73 74 7.0 14.0 0.00 0.01 0.01 83 1007.4
20180721202624 74 79 7.0 14.0 0.00 0.01 0.01 82 1007.4
20180721202501 74 75 8.0 14.0 0.00 0.01 0.01 81 1007.4
20180721202339 74 77 6.0 9.0 0.00 0.01 0.01 81 1007.4
20180721202220 74 95 5.0 8.0 0.00 0.01 0.01 81 1007.4
20180721202057 74 136 5.0 9.0 0.00 0.01 0.01 80 1007.3
20180721201934 74 82 1.0 9.0 0.00 0.01 0.01 81 1007.3
20180721201810 74 135 1.0 9.0 0.00 0.01 0.01 81 1007.3
20180721201651 74 134 1.0 9.0 0.00 0.01 0.01 81 1007.3
20180721201528 74 146 1.0 9.0 0.00 0.01 0.01 81 1007.3
20180721201405 73 108 1.0 9.0 0.00 0.01 0.01 81 1007.2
20180721201243 73 123 2.0 9.0 0.00 0.01 0.01 81 1007.2
20180721201119 74 129 5.0 9.0 0.00 0.01 0.01 80 1007.2
20180721201001 74 59 5.0 9.0 0.00 0.01 0.01 80 1007.2
20180721200837 74 84 4.0 9.0 0.00 0.01 0.01 80 1007.2
20180721200715 74 139 6.0 16.0 0.00 0.01 0.01 79 1007.2
20180721200554 74 76 6.0 16.0 0.00 0.01 0.01 79 1007.2
20180721200434 74 59 7.0 16.0 0.00 0.01 0.01 79 1007.2
20180721200310 74 64 7.0 16.0 0.00 0.01 0.01 78 1007.2
20180721200145 74 79 8.0 16.0 0.00 0.01 0.01 78 1007.1
20180721200022 74 81 9.0 16.0 0.00 0.01 0.01 79 1007.2
20180721195901 74 53 6.0 12.0 0.00 0.01 0.01 80 1007.2
20180721195739 74 71 7.0 12.0 0.00 0.01 0.01 79 1007.2
20180721195617 74 98 4.0 10.0 0.00 0.01 0.01 80 1007.2
20180721195454 74 153 4.0 10.0 0.00 0.01 0.01 79 1007.3
20180721195330 74 134 2.0 11.0 0.00 0.01 0.01 79 1007.3
20180721195211 74 91 5.0 11.0 0.00 0.01 0.01 78 1007.3
20180721195048 74 121 7.0 11.0 0.00 0.01 0.01 79 1007.4
20180721194924 74 84 4.0 11.0 0.00 0.01 0.01 80 1007.3
20180721194801 74 74 4.0 11.0 0.00 0.01 0.01 81 1007.4
20180721194641 74 103 5.0 11.0 0.00 0.01 0.01 80 1007.3
20180721194520 74 134 7.0 11.0 0.00 0.01 0.01 80 1007.3
20180721194356 74 149 6.0 11.0 0.00 0.01 0.01 80 1007.3
20180721194235 74 134 6.0 11.0 0.00 0.01 0.01 80 1007.4
20180721194116 73 136 7.0 11.0 0.00 0.01 0.01 80 1007.3
20180721193953 74 141 6.0 11.0 0.00 0.01 0.01 80 1007.3
20180721193829 73 140 2.0 8.0 0.00 0.01 0.01 81 1007.4
20180721193707 73 146 1.0 8.0 0.00 0.01 0.01 80 1007.4
20180721193542 73 145 4.0 10.0 0.00 0.01 0.01 80 1007.4
20180721193423 73 137 5.0 12.0 0.00 0.01 0.01 81 1007.4
20180721193300 73 111 4.0 12.0 0.00 0.01 0.01 81 1007.4
20180721193135 73 122 2.0 12.0 0.00 0.01 0.01 81 1007.4
20180721193013 73 113 1.0 12.0 0.00 0.01 0.01 81 1007.4
20180721192854 73 141 3.0 12.0 0.00 0.01 0.01 81 1007.4
20180721192730 73 142 8.0 12.0 0.00 0.01 0.01 81 1007.4
20180721192605 73 148 5.0 10.0 0.00 0.01 0.01 81 1007.4
20180721192442 73 140 6.0 9.0 0.00 0.01 0.01 80 1007.4
20180721192322 73 147 5.0 10.0 0.00 0.01 0.01 81 1007.4
20180721192158 73 157 4.0 10.0 0.00 0.01 0.01 80 1007.5
20180721192032 73 127 5.0 10.0 0.00 0.01 0.01 81 1007.5
20180721191907 73 121 4.0 10.0 0.00 0.01 0.01 81 1007.4
20180721191742 73 127 5.0 10.0 0.00 0.01 0.01 81 1007.5
20180721191623 73 142 4.0 10.0 0.00 0.01 0.01 82 1007.5
20180721191500 73 145 4.0 11.0 0.00 0.01 0.01 82 1007.4
20180721191336 73 140 2.0 11.0 0.00 0.01 0.01 82 1007.4
20180721191213 73 119 3.0 11.0 0.00 0.01 0.01 82 1007.4
20180721191053 73 134 1.0 11.0 0.00 0.01 0.01 82 1007.5
20180721190927 73 83 5.0 11.0 0.00 0.01 0.01 82 1007.5
20180721190804 73 137 5.0 11.0 0.00 0.01 0.01 83 1007.5
20180721190640 73 130 5.0 11.0 0.00 0.01 0.01 83 1007.6
20180721190521 73 118 4.0 11.0 0.00 0.01 0.01 84 1007.5
20180721190355 73 121 4.0 11.0 0.00 0.01 0.01 84 1007.5
20180721190232 72 126 3.0 11.0 0.00 0.01 0.01 84 1007.5
20180721190109 72 56 4.0 11.0 0.00 0.01 0.01 84 1007.5
20180721185930 72 153 5.0 11.0 0.00 0.01 0.01 83 1007.5
20180721185806 72 134 6.0 9.0 0.00 0.01 0.01 84 1007.6
20180721185643 72 145 4.0 9.0 0.00 0.01 0.01 84 1007.5
20180721185519 72 124 4.0 9.0 0.00 0.01 0.01 84 1007.5
20180721185357 72 119 5.0 11.0 0.00 0.01 0.01 84 1007.5
20180721185238 72 110 5.0 11.0 0.00 0.01 0.01 84 1007.5
20180721185115 72 150 5.0 11.0 0.00 0.01 0.01 84 1007.5
20180721184953 72 136 3.0 11.0 0.00 0.01 0.01 85 1007.5
20180721184829 72 113 3.0 11.0 0.00 0.01 0.01 84 1007.4
20180721184710 72 128 6.0 11.0 0.00 0.01 0.01 84 1007.5
20180721184544 72 123 5.0 10.0 0.00 0.01 0.01 84 1007.5
20180721184420 72 134 4.0 10.0 0.00 0.01 0.01 84 1007.5
20180721184258 72 109 6.0 10.0 0.00 0.01 0.01 84 1007.5
20180721184138 72 120 7.0 10.0 0.00 0.01 0.01 84 1007.5
20180721184013 72 128 5.0 10.0 0.00 0.01 0.01 85 1007.5
20180721183849 72 106 3.0 10.0 0.00 0.01 0.01 85 1007.4
20180721183724 72 123 5.0 9.0 0.00 0.01 0.01 85 1007.5
20180721183601 72 100 6.0 9.0 0.00 0.01 0.01 86 1007.6
20180721183440 72 117 5.0 10.0 0.00 0.01 0.01 85 1007.5
20180721183317 72 147 4.0 10.0 0.00 0.01 0.01 85 1007.5
20180721183154 72 131 5.0 10.0 0.00 0.01 0.01 85 1007.5
20180721183032 72 136 5.0 10.0 0.00 0.01 0.01 85 1007.5
20180721182913 72 115 4.0 10.0 0.00 0.01 0.01 85 1007.5
20180721182751 71 134 4.0 14.0 0.00 0.01 0.01 86 1007.5
20180721182626 71 115 6.0 14.0 0.00 0.01 0.01 85 1007.5
20180721182503 71 123 5.0 14.0 0.00 0.01 0.01 85 1007.5
20180721182343 71 111 5.0 14.0 0.00 0.01 0.01 86 1007.5
20180721182219 71 129 7.0 14.0 0.00 0.01 0.01 85 1007.5
20180721182055 71 116 8.0 14.0 0.00 0.01 0.01 85 1007.5
20180721181930 71 125 4.0 12.0 0.00 0.01 0.01 85 1007.5
20180721181806 71 117 5.0 12.0 0.00 0.01 0.01 85 1007.6
20180721181646 71 143 5.0 12.0 0.00 0.01 0.01 85 1007.5
20180721181522 71 107 4.0 12.0 0.00 0.01 0.01 86 1007.6
20180721181359 71 157 2.0 12.0 0.00 0.01 0.01 86 1007.5
20180721181234 71 136 4.0 12.0 0.00 0.01 0.01 86 1007.5
20180721181113 71 133 4.0 12.0 0.00 0.01 0.01 86 1007.5
20180721180950 71 114 6.0 12.0 0.00 0.01 0.01 85 1007.5
20180721180828 71 132 6.0 12.0 0.00 0.01 0.01 86 1007.6
20180721180705 71 132 5.0 13.0 0.00 0.01 0.01 86 1007.6
20180721180545 71 121 4.0 13.0 0.00 0.01 0.01 86 1007.5
20180721180423 71 113 7.0 13.0 0.00 0.01 0.01 86 1007.5
20180721180259 71 116 7.0 13.0 0.00 0.01 0.01 86 1007.5
20180721180136 72 128 6.0 13.0 0.00 0.01 0.01 86 1007.5
20180721180011 72 126 6.0 13.0 0.00 0.01 0.01 86 1007.5
20180721175852 72 146 3.0 9.0 0.00 0.01 0.01 86 1007.5
20180721175728 72 75 1.0 9.0 0.00 0.01 0.01 86 1007.4
20180721175605 72 108 2.0 10.0 0.00 0.01 0.01 86 1007.5
20180721175439 72 111 4.0 10.0 0.00 0.01 0.01 86 1007.5
20180721175320 72 132 4.0 10.0 0.00 0.01 0.01 86 1007.4
20180721175157 71 100 4.0 10.0 0.00 0.01 0.01 86 1007.4
20180721175036 71 146 2.0 10.0 0.00 0.01 0.01 86 1007.4
20180721174912 71 137 5.0 10.0 0.00 0.01 0.01 86 1007.4
20180721174752 71 133 5.0 10.0 0.00 0.01 0.01 87 1007.4
20180721174630 71 146 4.0 8.0 0.00 0.01 0.01 87 1007.4
20180721174509 71 169 2.0 8.0 0.00 0.01 0.01 87 1007.4
20180721174346 71 137 3.0 8.0 0.00 0.01 0.01 88 1007.5
20180721174222 71 112 3.0 11.0 0.00 0.01 0.01 88 1007.4
20180721174104 70 109 3.0 11.0 0.00 0.01 0.01 88 1007.4
20180721173941 70 130 2.0 11.0 0.00 0.01 0.01 88 1007.4
20180721173817 70 119 4.0 11.0 0.00 0.01 0.01 88 1007.4
20180721173654 70 131 3.0 11.0 0.00 0.01 0.01 88 1007.5
20180721173534 70 139 5.0 11.0 0.00 0.01 0.01 88 1007.5
20180721173411 70 111 6.0 11.0 0.00 0.01 0.01 88 1007.5
20180721173247 70 142 6.0 11.0 0.00 0.01 0.01 88 1007.4
20180721173124 70 121 6.0 10.0 0.00 0.01 0.01 88 1007.5
20180721173004 70 125 3.0 12.0 0.00 0.01 0.01 88 1007.5
20180721172842 70 126 2.0 12.0 0.00 0.01 0.01 88 1007.5
20180721172718 70 132 1.0 12.0 0.00 0.01 0.01 88 1007.5
20180721172556 70 128 3.0 12.0 0.00 0.01 0.01 88 1007.5
20180721172431 70 138 6.0 12.0 0.00 0.01 0.01 88 1007.5
20180721172310 70 129 7.0 12.0 0.00 0.01 0.01 88 1007.6
20180721172149 70 141 3.0 11.0 0.00 0.01 0.01 89 1007.5
20180721172026 70 147 1.0 9.0 0.00 0.01 0.01 89 1007.5
20180721171902 70 144 3.0 9.0 0.00 0.01 0.01 89 1007.5
20180721171742 70 155 3.0 9.0 0.00 0.01 0.01 89 1007.5
20180721171618 70 132 4.0 9.0 0.00 0.01 0.01 89 1007.5
20180721171453 70 140 4.0 9.0 0.00 0.01 0.01 89 1007.6
20180721171328 70 133 4.0 9.0 0.00 0.01 0.01 89 1007.6
20180721171211 70 138 2.0 10.0 0.00 0.01 0.01 90 1007.5
20180721171048 70 140 4.0 10.0 0.00 0.01 0.01 89 1007.6
20180721170921 70 159 3.0 10.0 0.00 0.01 0.01 90 1007.6
20180721170758 70 140 5.0 10.0 0.00 0.01 0.01 90 1007.7
20180721170633 70 139 6.0 10.0 0.00 0.01 0.01 90 1007.6
20180721170507 70 145 4.0 10.0 0.00 0.01 0.01 90 1007.7
20180721170344 69 134 1.0 8.0 0.00 0.01 0.01 90 1007.7
20180721170220 69 105 2.0 9.0 0.00 0.01 0.01 90 1007.7
20180721170056 69 118 3.0 9.0 0.00 0.01 0.01 91 1007.7
20180721165938 69 121 3.0 9.0 0.00 0.01 0.01 91 1007.7
20180721165815 69 118 2.0 9.0 0.00 0.01 0.01 91 1007.7
20180721165652 69 148 1.0 9.0 0.00 0.01 0.01 92 1007.7
20180721165528 69 109 2.0 9.0 0.00 0.01 0.01 92 1007.7
20180721165410 69 81 2.0 8.0 0.00 0.01 0.01 92 1007.7
20180721165247 69 130 2.0 8.0 0.00 0.01 0.01 92 1007.8
20180721165125 69 124 1.0 8.0 0.00 0.01 0.01 92 1007.7
20180721165001 69 144 0.0 11.0 0.00 0.01 0.01 92 1007.7
20180721164838 69 134 2.0 11.0 0.00 0.01 0.01 92 1007.8
20180721164720 68 134 5.0 11.0 0.00 0.01 0.01 92 1007.9
20180721164557 68 136 3.0 11.0 0.00 0.01 0.01 92 1007.9
20180721164433 68 140 3.0 11.0 0.00 0.01 0.01 92 1007.8
20180721164308 68 143 4.0 11.0 0.00 0.01 0.01 92 1007.9
20180721164148 68 128 6.0 11.0 0.00 0.01 0.01 92 1007.8
20180721164027 68 125 6.0 10.0 0.00 0.01 0.01 92 1007.8
20180721163904 68 142 5.0 10.0 0.00 0.01 0.01 92 1007.8
20180721163741 68 85 4.0 10.0 0.00 0.01 0.01 92 1007.9
20180721163623 68 148 5.0 10.0 0.00 0.01 0.01 93 1007.8
20180721163458 68 113 4.0 9.0 0.00 0.01 0.01 93 1007.9
20180721163335 68 121 3.0 8.0 0.00 0.01 0.01 93 1007.9
20180721163211 68 96 2.0 10.0 0.00 0.01 0.01 93 1007.8
20180721163048 68 101 3.0 10.0 0.00 0.01 0.01 93 1007.9
20180721162929 68 135 1.0 10.0 0.00 0.01 0.01 93 1007.8
20180721162808 68 134 1.0 10.0 0.00 0.01 0.01 93 1007.9
20180721162642 68 128 3.0 10.0 0.00 0.01 0.01 93 1007.9
20180721162517 68 136 5.0 10.0 0.00 0.01 0.01 93 1007.9
20180721162358 68 142 3.0 10.0 0.00 0.01 0.01 93 1007.9
20180721162236 68 130 3.0 10.0 0.00 0.01 0.01 93 1007.9
20180721162114 68 142 2.0 10.0 0.00 0.01 0.01 93 1008.0
20180721161950 68 133 3.0 10.0 0.00 0.01 0.01 93 1007.9
20180721161832 68 136 5.0 10.0 0.00 0.01 0.01 94 1008.0
20180721161708 68 140 4.0 10.0 0.00 0.01 0.01 94 1008.0
20180721161543 68 111 3.0 9.0 0.00 0.01 0.01 94 1008.0
20180721161419 68 119 3.0 7.0 0.00 0.01 0.01 94 1008.0
20180721161257 67 149 3.0 9.0 0.00 0.01 0.01 94 1008.0
20180721161136 67 143 2.0 12.0 0.00 0.01 0.01 94 1008.0
20180721161014 67 126 1.0 12.0 0.00 0.01 0.01 94 1008.0
20180721160851 67 135 1.0 12.0 0.00 0.01 0.01 94 1008.0
20180721160729 67 136 1.0 12.0 0.00 0.01 0.01 94 1008.0
20180721160609 67 137 3.0 12.0 0.00 0.01 0.01 94 1007.9
20180721160446 67 134 7.0 12.0 0.00 0.01 0.01 94 1007.9
20180721160322 67 127 6.0 12.0 0.00 0.01 0.01 94 1007.9
20180721160159 67 130 5.0 8.0 0.00 0.01 0.01 94 1007.9
20180721160038 67 118 4.0 10.0 0.00 0.01 0.01 94 1007.9
20180721155915 67 144 3.0 10.0 0.00 0.01 0.01 94 1007.9
20180721155752 67 147 3.0 10.0 0.00 0.01 0.01 94 1007.9
20180721155628 67 152 4.0 10.0 0.00 0.01 0.01 94 1007.9
20180721155506 67 159 6.0 10.0 0.00 0.01 0.01 94 1007.9
20180721155343 67 158 6.0 10.0 0.00 0.01 0.01 94 1007.8
20180721155219 67 148 5.0 9.0 0.00 0.01 0.01 94 1007.8
20180721155055 67 141 6.0 9.0 0.00 0.01 0.01 94 1007.8
20180721154933 67 152 4.0 9.0 0.00 0.01 0.01 94 1007.8
20180721154813 67 119 4.0 9.0 0.00 0.01 0.01 94 1007.8
20180721154649 67 101 5.0 9.0 0.00 0.01 0.01 94 1007.8
20180721154526 67 123 3.0 7.0 0.00 0.01 0.01 95 1007.9
20180721154403 67 136 1.0 5.0 0.00 0.01 0.01 95 1007.9
20180721154244 67 135 0.0 5.0 0.00 0.01 0.01 95 1007.8
20180721154120 67 134 1.0 6.0 0.00 0.01 0.01 95 1007.8
20180721153957 67 132 0.0 6.0 0.00 0.01 0.01 95 1007.8
20180721153834 67 132 0.0 6.0 0.00 0.01 0.01 95 1007.7
20180721153712 67 144 0.0 6.0 0.00 0.01 0.01 95 1007.7
20180721153552 67 145 1.0 6.0 0.00 0.01 0.01 95 1007.7
20180721153427 67 142 2.0 6.0 0.00 0.01 0.01 95 1007.8
20180721153305 67 145 0.0 6.0 0.00 0.01 0.01 95 1007.8
20180721153141 67 145 0.0 6.0 0.00 0.01 0.01 95 1007.7
20180721153020 67 142 0.0 6.0 0.00 0.01 0.01 95 1007.7
20180721152858 67 143 1.0 8.0 0.00 0.01 0.01 95 1007.7
20180721152736 67 143 1.0 8.0 0.00 0.01 0.01 95 1007.8
20180721152613 67 144 1.0 8.0 0.00 0.01 0.01 95 1007.7
20180721152452 67 142 0.0 8.0 0.00 0.01 0.01 95 1007.8
20180721152329 67 140 2.0 8.0 0.00 0.01 0.01 95 1007.7
20180721152205 67 142 4.0 8.0 0.00 0.01 0.01 95 1007.8
20180721152041 67 151 2.0 7.0 0.00 0.01 0.01 95 1007.8
20180721151917 67 148 1.0 7.0 0.00 0.01 0.01 95 1007.8
20180721151759 67 146 1.0 7.0 0.00 0.01 0.01 95 1007.7
20180721151637 67 123 0.0 7.0 0.00 0.01 0.01 95 1007.7
20180721151515 67 121 0.0 7.0 0.00 0.01 0.01 95 1007.7
20180721151351 66 119 2.0 7.0 0.00 0.01 0.01 95 1007.7
20180721151233 66 113 2.0 8.0 0.00 0.01 0.01 95 1007.7
20180721151109 66 142 2.0 8.0 0.00 0.01 0.01 95 1007.7
20180721150945 66 139 1.0 8.0 0.00 0.01 0.01 95 1007.7
20180721150822 66 142 2.0 8.0 0.00 0.01 0.01 94 1007.6
20180721150702 66 142 4.0 8.0 0.00 0.01 0.01 94 1007.6
20180721150540 66 140 3.0 8.0 0.00 0.01 0.01 94 1007.7
20180721150417 66 151 2.0 6.0 0.00 0.01 0.01 94 1007.6
20180721150253 67 154 3.0 6.0 0.00 0.01 0.01 94 1007.6
20180721150132 67 147 2.0 8.0 0.00 0.01 0.01 94 1007.6
20180721150013 67 151 1.0 8.0 0.00 0.01 0.01 94 1007.6
20180721145850 67 151 1.0 8.0 0.00 0.01 0.01 94 1007.6
20180721145727 67 151 1.0 8.0 0.00 0.01 0.01 94 1007.6
20180721145604 67 130 1.0 8.0 0.00 0.01 0.01 94 1007.6
20180721145445 67 128 3.0 8.0 0.00 0.01 0.01 94 1007.6
20180721145321 67 137 5.0 8.0 0.00 0.01 0.01 94 1007.6
20180721145158 67 141 5.0 8.0 0.00 0.01 0.01 94 1007.6
20180721145035 67 146 3.0 8.0 0.00 0.01 0.01 94 1007.6
20180721144917 67 126 3.0 7.0 0.00 0.01 0.01 94 1007.6
20180721144754 67 132 2.0 7.0 0.00 0.01 0.01 94 1007.5
20180721144633 67 146 1.0 7.0 0.00 0.01 0.01 94 1007.6
20180721144509 67 150 3.0 12.0 0.00 0.01 0.01 94 1007.5
20180721144348 67 154 0.0 12.0 0.00 0.01 0.01 94 1007.5
20180721144228 67 140 1.0 12.0 0.00 0.01 0.01 94 1007.5
20180721144105 67 140 1.0 12.0 0.00 0.01 0.01 94 1007.5
20180721143941 67 141 2.0 12.0 0.00 0.01 0.01 94 1007.5
20180721143818 67 148 7.0 12.0 0.00 0.01 0.01 94 1007.5
20180721143700 67 132 5.0 12.0 0.00 0.01 0.01 94 1007.5
20180721143535 67 126 1.0 10.0 0.00 0.01 0.01 94 1007.5
20180721143413 67 153 2.0 10.0 0.00 0.01 0.01 94 1007.6
20180721143250 67 123 4.0 10.0 0.00 0.01 0.01 94 1007.5
20180721143131 67 117 6.0 10.0 0.00 0.01 0.01 94 1007.5
20180721143009 67 148 6.0 10.0 0.00 0.01 0.01 94 1007.5
20180721142843 67 143 6.0 10.0 0.00 0.01 0.01 94 1007.5
20180721142720 67 133 3.0 9.0 0.00 0.01 0.01 94 1007.5
20180721142558 67 136 3.0 9.0 0.00 0.01 0.01 94 1007.5
20180721142440 67 142 4.0 9.0 0.00 0.01 0.01 94 1007.4
20180721142317 67 121 2.0 9.0 0.00 0.01 0.01 94 1007.4
20180721142154 66 128 1.0 9.0 0.00 0.01 0.01 94 1007.4
20180721142032 66 134 5.0 9.0 0.00 0.01 0.01 94 1007.4
20180721141914 66 144 3.0 10.0 0.00 0.01 0.01 94 1007.4
20180721141751 66 151 3.0 10.0 0.00 0.01 0.01 94 1007.4
20180721141628 66 155 3.0 10.0 0.00 0.01 0.01 94 1007.4
20180721141504 66 123 4.0 10.0 0.00 0.01 0.01 94 1007.4
20180721141346 66 122 4.0 10.0 0.00 0.01 0.01 94 1007.5
20180721141226 67 122 4.0 10.0 0.00 0.01 0.01 94 1007.4
20180721141059 67 139 2.0 10.0 0.00 0.01 0.01 94 1007.4
20180721140937 67 130 5.0 10.0 0.00 0.01 0.01 94 1007.4
20180721140814 67 151 3.0 10.0 0.00 0.01 0.01 94 1007.4
20180721140653 67 150 5.0 10.0 0.00 0.01 0.01 94 1007.4
20180721140530 67 150 6.0 10.0 0.00 0.01 0.01 94 1007.4
20180721140407 67 151 4.0 10.0 0.00 0.01 0.01 94 1007.4
20180721140244 67 150 5.0 10.0 0.00 0.01 0.01 94 1007.4
20180721140125 67 164 4.0 10.0 0.00 0.01 0.01 94 1007.4
20180721140003 67 153 4.0 9.0 0.00 0.01 0.01 94 1007.3
20180721135838 67 168 5.0 9.0 0.00 0.01 0.01 94 1007.3
20180721135715 67 153 4.0 9.0 0.00 0.01 0.01 94 1007.4
20180721135554 67 142 4.0 9.0 0.00 0.01 0.01 94 1007.4
20180721135432 67 158 1.0 9.0 0.00 0.01 0.01 94 1007.3
20180721135308 67 144 3.0 9.0 0.00 0.01 0.01 94 1007.4
20180721135145 67 156 3.0 9.0 0.00 0.01 0.01 94 1007.4
20180721135021 67 142 2.0 9.0 0.00 0.01 0.01 94 1007.4
20180721134903 67 117 5.0 11.0 0.00 0.01 0.01 94 1007.4
20180721134740 67 127 5.0 11.0 0.00 0.01 0.01 94 1007.4
20180721134618 67 130 5.0 11.0 0.00 0.01 0.01 94 1007.4
20180721134453 66 128 2.0 13.0 0.00 0.01 0.01 94 1007.4
20180721134334 66 145 4.0 13.0 0.00 0.01 0.01 94 1007.4
20180721134212 67 141 7.0 13.0 0.00 0.01 0.01 94 1007.4
20180721134049 67 138 5.0 13.0 0.00 0.01 0.01 94 1007.4
20180721133928 66 154 4.0 13.0 0.00 0.01 0.01 94 1007.4
20180721133810 66 138 7.0 13.0 0.00 0.01 0.01 94 1007.4
20180721133647 66 132 6.0 14.0 0.00 0.01 0.01 94 1007.3
20180721133525 66 143 5.0 14.0 0.00 0.01 0.01 94 1007.4
20180721133403 67 132 7.0 14.0 0.00 0.01 0.01 94 1007.4
20180721133240 67 136 5.0 14.0 0.00 0.01 0.01 94 1007.3
20180721133122 66 138 4.0 10.0 0.00 0.01 0.01 94 1007.3
20180721132956 67 135 5.0 10.0 0.00 0.01 0.01 94 1007.3
20180721132832 67 121 3.0 10.0 0.00 0.01 0.01 95 1007.3
20180721132708 67 124 3.0 11.0 0.00 0.01 0.01 95 1007.3
20180721132548 66 120 7.0 11.0 0.00 0.01 0.01 95 1007.3
20180721132424 67 131 4.0 9.0 0.00 0.01 0.01 95 1007.3
20180721132301 67 134 3.0 9.0 0.00 0.01 0.01 95 1007.2
20180721132138 67 135 1.0 9.0 0.00 0.01 0.01 95 1007.2
20180721132019 66 130 1.0 9.0 0.00 0.01 0.01 95 1007.2
20180721131857 66 130 3.0 9.0 0.00 0.01 0.01 95 1007.1
20180721131734 66 130 4.0 9.0 0.00 0.01 0.01 95 1007.2
20180721131613 66 130 6.0 9.0 0.00 0.01 0.01 95 1007.1
20180721131451 66 115 5.0 9.0 0.00 0.01 0.01 95 1007.1
20180721131332 66 136 2.0 6.0 0.00 0.01 0.01 95 1007.0
20180721131208 66 136 1.0 6.0 0.00 0.01 0.01 95 1007.0
20180721131046 66 136 0.0 4.0 0.00 0.01 0.01 95 1007.0
20180721130922 66 136 0.0 7.0 0.00 0.01 0.01 95 1007.0
20180721130802 66 136 0.0 7.0 0.00 0.01 0.01 95 1007.0
20180721130639 66 136 0.0 7.0 0.00 0.01 0.01 95 1007.0
20180721130518 66 136 0.0 7.0 0.00 0.01 0.01 95 1007.0
20180721130355 66 136 1.0 7.0 0.00 0.01 0.01 95 1007.0
20180721130235 66 139 4.0 7.0 0.00 0.01 0.01 95 1007.0
20180721130113 66 142 1.0 7.0 0.00 0.01 0.01 95 1006.9
20180721125947 66 134 2.0 7.0 0.00 0.01 0.01 95 1006.9
20180721125823 66 138 2.0 6.0 0.00 0.01 0.01 95 1006.9
20180721125700 66 133 3.0 6.0 0.00 0.01 0.01 95 1007.0
20180721125539 66 132 1.0 6.0 0.00 0.01 0.01 95 1006.9
20180721125416 66 135 1.0 6.0 0.00 0.01 0.01 95 1006.9
20180721125252 66 127 0.0 5.0 0.00 0.01 0.01 95 1006.9
20180721125129 66 133 1.0 5.0 0.00 0.01 0.01 95 1006.9
20180721125009 66 103 0.0 5.0 0.00 0.01 0.01 95 1006.9
20180721124846 66 104 2.0 5.0 0.00 0.01 0.01 95 1006.9
20180721124722 66 98 1.0 7.0 0.00 0.01 0.01 95 1006.8
20180721124558 66 136 0.0 7.0 0.00 0.01 0.01 95 1006.8
20180721124439 66 136 1.0 7.0 0.00 0.01 0.01 95 1006.8
20180721124316 66 137 0.0 7.0 0.00 0.01 0.01 95 1006.8
20180721124152 66 137 0.0 7.0 0.00 0.01 0.01 95 1006.9
20180721124030 66 137 1.0 7.0 0.00 0.01 0.01 95 1006.8
20180721123906 66 130 0.0 8.0 0.00 0.01 0.01 95 1006.9
20180721123747 66 142 0.0 8.0 0.00 0.01 0.01 95 1006.8
20180721123624 66 142 0.0 8.0 0.00 0.01 0.01 95 1006.8
20180721123500 66 142 0.0 8.0 0.00 0.01 0.01 95 1006.9
20180721123335 66 142 1.0 8.0 0.00 0.01 0.01 95 1006.9
20180721123215 66 145 3.0 8.0 0.00 0.01 0.01 95 1006.9
20180721123052 66 137 2.0 8.0 0.00 0.01 0.01 95 1006.9
20180721122930 66 140 1.0 10.0 0.00 0.01 0.01 95 1006.9
20180721122806 66 140 2.0 10.0 0.00 0.01 0.01 95 1006.9
20180721122646 66 147 3.0 10.0 0.00 0.01 0.01 95 1006.9
20180721122523 66 138 3.0 10.0 0.00 0.01 0.01 95 1006.9
20180721122401 66 150 1.0 12.0 0.00 0.01 0.01 95 1006.9
20180721122237 66 137 3.0 12.0 0.00 0.01 0.01 95 1006.9
20180721122102 66 133 3.0 12.0 0.00 0.01 0.01 95 1006.8
20180721121938 66 139 4.0 12.0 0.00 0.01 0.01 95 1006.8
20180721121812 66 134 5.0 12.0 0.00 0.01 0.01 95 1006.8
20180721121648 66 136 7.0 12.0 0.00 0.01 0.01 95 1006.8
20180721121526 66 140 5.0 10.0 0.00 0.01 0.01 95 1006.8
20180721121406 66 116 2.0 8.0 0.00 0.01 0.01 95 1006.8
20180721121242 66 133 1.0 6.0 0.00 0.01 0.01 95 1006.8
20180721121118 66 137 1.0 8.0 0.00 0.01 0.01 95 1006.7
20180721120953 66 130 2.0 8.0 0.00 0.01 0.01 95 1006.8
20180721120834 66 123 2.0 8.0 0.00 0.01 0.01 95 1006.8
20180721120708 66 134 2.0 8.0 0.00 0.01 0.01 95 1006.8
20180721120545 66 129 3.0 8.0 0.00 0.01 0.01 95 1006.8
20180721120422 66 132 3.0 8.0 0.00 0.01 0.01 95 1006.8
20180721120302 66 135 2.0 8.0 0.00 0.01 0.01 95 1006.8
20180721120140 66 127 3.0 8.0 0.00 0.01 0.01 95 1006.7
20180721120017 66 139 4.0 8.0 0.00 0.01 0.01 95 1006.7
20180721115854 66 133 2.0 8.0 0.00 0.01 0.01 95 1006.7
20180721115732 66 113 4.0 9.0 0.00 0.01 0.01 95 1006.7
20180721115614 66 137 2.0 10.0 0.00 0.01 0.01 95 1006.7
20180721115452 66 151 1.0 10.0 0.00 0.01 0.01 95 1006.7
20180721115330 66 153 2.0 10.0 0.00 0.01 0.01 95 1006.8
20180721115207 66 142 2.0 10.0 0.00 0.01 0.01 95 1006.8
20180721115049 66 134 4.0 10.0 0.00 0.01 0.01 95 1006.7
20180721114926 66 135 4.0 10.0 0.00 0.01 0.01 95 1006.7
20180721114805 66 137 0.0 11.0 0.00 0.01 0.01 95 1006.8
20180721114643 66 124 0.0 11.0 0.00 0.01 0.01 95 1006.8
20180721114525 66 142 0.0 11.0 0.00 0.01 0.01 95 1006.7
20180721114402 66 143 0.0 11.0 0.00 0.01 0.01 95 1006.8
20180721114241 66 127 1.0 11.0 0.00 0.01 0.01 95 1006.7
20180721114120 66 122 6.0 11.0 0.00 0.01 0.01 95 1006.7
20180721113959 66 137 5.0 11.0 0.00 0.01 0.01 95 1006.7
20180721113841 66 150 3.0 8.0 0.00 0.01 0.01 95 1006.6
20180721113718 66 150 2.0 10.0 0.00 0.01 0.01 95 1006.7
20180721113557 66 136 1.0 10.0 0.00 0.01 0.01 95 1006.6
20180721113435 66 139 1.0 10.0 0.00 0.01 0.01 95 1006.6
20180721113317 66 137 3.0 10.0 0.00 0.01 0.01 95 1006.6
20180721113157 66 140 5.0 10.0 0.00 0.01 0.01 95 1006.6
20180721113035 66 142 7.0 10.0 0.00 0.01 0.01 95 1006.6
20180721112913 66 130 7.0 9.0 0.00 0.01 0.01 95 1006.6
20180721112754 66 159 4.0 8.0 0.00 0.01 0.01 95 1006.6
20180721112633 66 119 2.0 8.0 0.00 0.01 0.01 95 1006.6
20180721112510 66 127 1.0 5.0 0.00 0.01 0.01 95 1006.6
20180721112348 66 132 1.0 5.0 0.00 0.01 0.01 95 1006.6
20180721112228 66 132 1.0 6.0 0.00 0.01 0.01 95 1006.6
20180721112110 66 139 0.0 6.0 0.00 0.01 0.01 95 1006.6
20180721111948 66 139 0.0 6.0 0.00 0.01 0.01 95 1006.6
20180721111825 66 139 0.0 9.0 0.00 0.01 0.01 95 1006.6
20180721111703 66 139 0.0 9.0 0.00 0.01 0.01 95 1006.5
20180721111545 66 139 1.0 9.0 0.00 0.01 0.01 95 1006.5
20180721111425 66 140 0.0 9.0 0.00 0.01 0.01 95 1006.5
20180721111302 66 139 1.0 9.0 0.00 0.01 0.01 95 1006.5
20180721111142 66 139 4.0 9.0 0.00 0.01 0.01 95 1006.5
20180721111024 66 147 4.0 9.0 0.00 0.01 0.01 95 1006.5
20180721110903 66 143 2.0 8.0 0.00 0.01 0.01 95 1006.5
20180721110740 66 142 2.0 8.0 0.00 0.01 0.01 95 1006.5
20180721110619 65 144 3.0 8.0 0.00 0.01 0.01 95 1006.4
20180721110458 66 124 4.0 8.0 0.00 0.01 0.01 95 1006.5
20180721110340 66 121 2.0 8.0 0.00 0.01 0.01 95 1006.4
20180721110218 66 121 2.0 8.0 0.00 0.01 0.01 95 1006.4
20180721110054 65 122 3.0 8.0 0.00 0.01 0.01 95 1006.4
20180721105933 65 121 1.0 7.0 0.00 0.01 0.01 95 1006.4
20180721105816 65 121 0.0 6.0 0.00 0.01 0.01 95 1006.4
20180721105654 65 121 1.0 6.0 0.00 0.01 0.01 95 1006.3
20180721105532 65 121 1.0 6.0 0.00 0.01 0.01 95 1006.3
20180721105410 65 132 0.0 4.0 0.00 0.01 0.01 95 1006.3
20180721105251 65 132 0.0 4.0 0.00 0.01 0.01 94 1006.3
20180721105129 65 132 1.0 5.0 0.00 0.01 0.01 94 1006.3
20180721105011 65 132 0.0 5.0 0.00 0.01 0.01 94 1006.3
20180721104850 65 132 0.0 5.0 0.00 0.01 0.01 94 1006.3
20180721104728 65 132 0.0 5.0 0.00 0.01 0.01 94 1006.3
20180721104610 65 132 0.0 5.0 0.00 0.01 0.01 94 1006.3
20180721104448 65 132 2.0 5.0 0.00 0.01 0.01 94 1006.3
20180721104325 65 136 0.0 5.0 0.00 0.01 0.01 94 1006.3
20180721104203 65 128 0.0 5.0 0.00 0.01 0.01 94 1006.3
20180721104045 65 128 0.0 5.0 0.00 0.01 0.01 94 1006.4
20180721103922 66 128 0.0 5.0 0.00 0.01 0.01 94 1006.4
20180721103759 65 128 1.0 5.0 0.00 0.01 0.01 94 1006.4
20180721103637 65 128 1.0 5.0 0.00 0.01 0.01 94 1006.3
20180721103520 65 123 1.0 4.0 0.00 0.01 0.01 94 1006.3
20180721103358 65 125 1.0 4.0 0.00 0.01 0.01 94 1006.3
20180721103235 66 126 0.0 4.0 0.00 0.01 0.01 94 1006.3
20180721103113 66 126 0.0 4.0 0.00 0.01 0.01 94 1006.3
20180721102951 66 125 0.0 5.0 0.00 0.01 0.01 94 1006.4
20180721102833 66 126 1.0 7.0 0.00 0.01 0.01 94 1006.4
20180721102711 66 125 1.0 7.0 0.00 0.01 0.01 94 1006.4
20180721102549 66 85 0.0 7.0 0.00 0.01 0.01 94 1006.4
20180721102427 66 85 0.0 7.0 0.00 0.01 0.01 94 1006.3
20180721102250 66 84 1.0 7.0 0.00 0.01 0.01 94 1006.3
20180721102128 66 82 2.0 7.0 0.00 0.01 0.01 94 1006.3
20180721102006 66 125 0.0 4.0 0.00 0.01 0.01 94 1006.3
20180721101845 66 126 0.0 8.0 0.00 0.01 0.01 94 1006.3
20180721101727 66 126 0.0 8.0 0.00 0.01 0.01 94 1006.3
20180721101605 66 126 0.0 8.0 0.00 0.01 0.01 93 1006.3
20180721101443 66 126 0.0 8.0 0.00 0.01 0.01 93 1006.3
20180721101321 66 126 1.0 8.0 0.00 0.01 0.01 93 1006.3
20180721101202 66 122 2.0 8.0 0.00 0.01 0.01 93 1006.4
20180721101039 66 122 1.0 8.0 0.00 0.01 0.01 93 1006.4
20180721100917 66 126 0.0 5.0 0.00 0.01 0.01 93 1006.4
20180721100756 66 126 0.0 5.0 0.00 0.01 0.01 93 1006.4
20180721100634 66 126 0.0 5.0 0.00 0.01 0.01 93 1006.4
20180721100515 66 126 0.0 5.0 0.00 0.01 0.01 93 1006.4
20180721100352 66 126 0.0 7.0 0.00 0.01 0.01 93 1006.3
20180721100230 66 126 1.0 7.0 0.00 0.01 0.01 93 1006.3
20180721100108 66 130 1.0 8.0 0.00 0.01 0.01 93 1006.3
20180721095949 66 130 1.0 8.0 0.00 0.01 0.01 93 1006.3
20180721095826 66 114 0.0 8.0 0.00 0.01 0.01 93 1006.2
20180721095704 66 134 3.0 8.0 0.00 0.01 0.01 93 1006.2
20180721095541 66 134 3.0 8.0 0.00 0.01 0.01 93 1006.2
20180721095422 66 142 4.0 8.0 0.00 0.01 0.01 93 1006.2
20180721095300 66 140 3.0 9.0 0.00 0.01 0.01 93 1006.1
20180721095138 66 119 2.0 8.0 0.00 0.01 0.01 93 1006.1
20180721095016 66 126 1.0 8.0 0.00 0.01 0.01 93 1006.1
20180721094854 66 114 2.0 8.0 0.00 0.01 0.01 92 1006.2
20180721094736 66 120 5.0 8.0 0.00 0.01 0.01 92 1006.1
20180721094614 66 130 3.0 9.0 0.00 0.01 0.01 92 1006.1
20180721094452 66 130 3.0 9.0 0.00 0.01 0.01 93 1006.1
20180721094330 66 134 4.0 9.0 0.00 0.01 0.01 92 1006.1
20180721094212 66 122 0.0 7.0 0.00 0.01 0.01 93 1006.1
20180721094049 66 122 1.0 7.0 0.00 0.01 0.01 92 1006.0
20180721093926 66 122 1.0 7.0 0.00 0.01 0.01 93 1006.0
20180721093807 66 119 2.0 7.0 0.00 0.01 0.01 93 1006.0
20180721093649 66 121 1.0 7.0 0.00 0.01 0.01 92 1006.0
20180721093526 66 118 1.0 7.0 0.00 0.01 0.01 92 1006.0
20180721093408 66 114 3.0 7.0 0.00 0.01 0.01 92 1006.0
20180721093244 66 111 1.0 7.0 0.00 0.01 0.01 92 1006.0
20180721093122 66 119 0.0 1.0 0.00 0.01 0.01 92 1006.0
20180721093004 66 119 0.0 0.0 0.00 0.01 0.01 92 1005.9
20180721092842 66 119 0.0 0.0 0.00 0.01 0.01 92 1005.9
20180721092720 66 119 0.0 0.0 0.00 0.01 0.01 92 1005.9
20180721092558 66 119 0.0 0.0 0.00 0.01 0.01 93 1006.0
20180721092440 66 120 0.0 0.0 0.00 0.01 0.01 93 1005.9
20180721092317 66 120 0.0 0.0 0.00 0.01 0.01 93 1006.0
20180721092157 66 120 0.0 0.0 0.00 0.01 0.01 93 1005.9
20180721092034 66 121 0.0 0.0 0.00 0.01 0.01 93 1005.9
20180721091916 66 121 0.0 0.0 0.00 0.01 0.01 93 1005.9
20180721091753 66 121 0.0 0.0 0.00 0.01 0.01 93 1005.9
20180721091631 66 121 0.0 0.0 0.00 0.01 0.01 93 1005.9
20180721091509 66 125 0.0 0.0 0.00 0.01 0.01 93 1005.9
20180721091347 66 123 0.0 0.0 0.00 0.01 0.01 93 1005.9
20180721091228 66 128 0.0 4.0 0.00 0.01 0.01 93 1005.9
20180721091105 66 123 0.0 4.0 0.00 0.01 0.01 93 1005.9
20180721090941 66 126 0.0 5.0 0.00 0.01 0.01 93 1005.9
20180721090819 66 127 0.0 8.0 0.00 0.01 0.01 93 1006.0
20180721090701 66 127 0.0 8.0 0.00 0.01 0.01 93 1006.0
20180721090541 66 124 0.0 8.0 0.00 0.01 0.01 93 1006.0
20180721090419 66 134 1.0 9.0 0.00 0.01 0.01 93 1006.0
20180721090257 66 130 2.0 9.0 0.00 0.01 0.01 93 1006.0
20180721090154 66 130 4.0 9.0 0.00 0.01 0.01 93 1006.0
20180721090014 66 139 3.0 9.0 0.00 0.01 0.01 93 1006.0
20180721085851 66 144 4.0 9.0 0.00 0.01 0.01 93 1006.0
20180721085730 66 137 4.0 9.0 0.00 0.01 0.01 93 1006.0
20180721085606 66 142 4.0 9.0 0.00 0.01 0.01 93 1005.9
20180721085448 65 142 3.0 7.0 0.00 0.01 0.01 93 1006.0
20180721085326 65 145 2.0 7.0 0.00 0.01 0.01 93 1006.0
20180721085203 65 135 4.0 7.0 0.00 0.01 0.01 93 1006.0
20180721085041 65 136 2.0 5.0 0.01 0.01 0.01 93 1006.0
20180721084924 65 117 1.0 5.0 0.01 0.01 0.01 93 1005.9
20180721084802 65 124 1.0 5.0 0.01 0.01 0.01 93 1005.9
20180721084640 65 123 0.0 5.0 0.01 0.01 0.01 93 1005.9
20180721084518 65 121 1.0 5.0 0.01 0.01 0.01 93 1006.0
20180721084359 65 153 1.0 5.0 0.01 0.01 0.01 93 1006.0
20180721084238 65 155 0.0 0.0 0.01 0.01 0.01 93 1006.0
20180721084116 65 155 0.0 0.0 0.01 0.01 0.01 93 1006.0
20180721083955 65 155 0.0 0.0 0.01 0.01 0.01 93 1006.0
20180721083833 65 155 0.0 0.0 0.01 0.01 0.01 93 1006.0
20180721083715 65 155 0.0 0.0 0.01 0.01 0.01 93 1006.0
20180721083555 65 155 0.0 0.0 0.01 0.01 0.01 93 1006.1
20180721083433 65 155 0.0 0.0 0.01 0.01 0.01 93 1006.1
20180721083311 65 155 0.0 0.0 0.01 0.01 0.01 93 1006.1
20180721083153 66 155 0.0 0.0 0.01 0.01 0.01 93 1006.1
20180721083031 66 155 0.0 0.0 0.01 0.01 0.01 93 1006.1
20180721082908 66 155 0.0 0.0 0.01 0.01 0.01 93 1006.1
20180721082746 66 155 0.0 0.0 0.01 0.01 0.01 93 1006.2
20180721082627 66 155 0.0 0.0 0.01 0.01 0.01 93 1006.2
20180721082506 65 155 0.0 0.0 0.01 0.01 0.01 93 1006.1
20180721082343 66 155 0.0 0.0 0.01 0.01 0.01 93 1006.1
20180721082221 65 155 0.0 0.0 0.01 0.01 0.01 93 1006.1
20180721082059 65 155 0.0 0.0 0.01 0.01 0.01 92 1006.1
20180721081941 65 155 0.0 0.0 0.01 0.01 0.01 92 1006.1
20180721081820 66 155 0.0 0.0 0.01 0.01 0.01 92 1006.1
20180721081657 65 155 0.0 0.0 0.01 0.01 0.01 92 1006.1
20180721081535 66 155 0.0 1.0 0.01 0.01 0.01 92 1006.1
20180721081417 65 155 0.0 1.0 0.01 0.01 0.01 92 1006.1
20180721081255 65 155 0.0 1.0 0.01 0.01 0.01 92 1006.1
20180721081135 66 155 0.0 1.0 0.01 0.01 0.01 92 1006.1
20180721081013 66 155 0.0 1.0 0.01 0.01 0.01 92 1006.2
20180721080855 66 155 0.0 5.0 0.01 0.01 0.01 92 1006.1
20180721080733 66 155 0.0 5.0 0.01 0.01 0.01 92 1006.1
20180721080611 66 155 0.0 5.0 0.01 0.01 0.01 92 1006.1
20180721080450 66 156 0.0 5.0 0.01 0.01 0.01 91 1006.1
20180721080328 66 156 0.0 6.0 0.01 0.01 0.01 91 1006.1
20180721080209 66 156 1.0 6.0 0.01 0.01 0.01 91 1006.1
20180721080046 66 155 0.0 6.0 0.01 0.01 0.01 91 1006.0
20180721075924 66 156 1.0 6.0 0.01 0.01 0.01 91 1006.1
20180721075801 66 157 1.0 8.0 0.01 0.01 0.01 91 1006.2
20180721075643 66 153 2.0 8.0 0.01 0.01 0.01 91 1006.1
20180721075520 66 155 3.0 8.0 0.01 0.01 0.01 90 1006.2
20180721075357 66 150 2.0 8.0 0.01 0.01 0.01 90 1006.2
20180721075235 66 138 3.0 10.0 0.01 0.01 0.01 90 1006.1
20180721075117 66 138 3.0 10.0 0.00 0.00 0.00 90 1006.1
20180721074955 66 139 4.0 10.0 0.00 0.00 0.00 89 1006.1
20180721074832 66 132 1.0 10.0 0.00 0.00 0.00 89 1006.1
20180721074712 66 138 2.0 10.0 0.00 0.00 0.00 89 1006.1
20180721074549 67 146 2.0 10.0 0.00 0.00 0.00 89 1006.1
20180721074430 67 133 2.0 10.0 0.00 0.00 0.00 89 1006.1
20180721074307 67 134 1.0 8.0 0.00 0.00 0.00 89 1006.1
20180721074144 67 134 1.0 8.0 0.00 0.00 0.00 89 1006.1
20180721074023 67 130 2.0 8.0 0.00 0.00 0.00 89 1006.1
20180721073905 66 131 3.0 8.0 0.00 0.00 0.00 89 1006.1
20180721073743 66 125 4.0 8.0 0.00 0.00 0.00 89 1006.1
20180721073621 66 129 4.0 8.0 0.00 0.00 0.00 89 1006.1
20180721073458 66 138 0.0 6.0 0.00 0.00 0.00 90 1006.2
20180721073340 66 130 2.0 6.0 0.00 0.00 0.00 90 1006.1
20180721073218 66 127 1.0 5.0 0.00 0.00 0.00 90 1006.1
20180721073056 66 148 0.0 1.0 0.00 0.00 0.00 89 1006.2
20180721072934 66 148 0.0 4.0 0.00 0.00 0.00 89 1006.1
20180721072812 66 150 0.0 4.0 0.00 0.00 0.00 89 1006.2
20180721072654 66 150 0.0 6.0 0.00 0.00 0.00 89 1006.1
20180721072531 66 152 0.0 8.0 0.00 0.00 0.00 89 1006.2
20180721072409 67 153 0.0 9.0 0.00 0.00 0.00 89 1006.2
20180721072248 67 153 1.0 11.0 0.00 0.00 0.00 89 1006.2
20180721072130 67 152 2.0 11.0 0.00 0.00 0.00 88 1006.2
20180721072007 67 147 3.0 11.0 0.00 0.00 0.00 88 1006.2
20180721071844 67 147 5.0 11.0 0.00 0.00 0.00 88 1006.2
20180721071723 67 140 5.0 11.0 0.00 0.00 0.00 87 1006.2
20180721071605 67 146 6.0 11.0 0.00 0.00 0.00 87 1006.2
20180721071442 67 151 3.0 11.0 0.00 0.00 0.00 87 1006.2
20180721071320 67 138 3.0 12.0 0.00 0.00 0.00 86 1006.2
20180721071157 68 136 4.0 12.0 0.00 0.00 0.00 86 1006.2
20180721071035 68 150 5.0 12.0 0.00 0.00 0.00 85 1006.2
20180721070916 68 162 5.0 12.0 0.00 0.00 0.00 85 1006.2
20180721070754 68 135 5.0 12.0 0.00 0.00 0.00 85 1006.3
20180721070633 68 142 6.0 12.0 0.00 0.00 0.00 85 1006.3
20180721070510 68 142 7.0 12.0 0.00 0.00 0.00 85 1006.3
20180721070351 68 139 6.0 12.0 0.00 0.00 0.00 84 1006.3
20180721070229 68 169 5.0 10.0 0.00 0.00 0.00 84 1006.3
20180721070109 68 130 2.0 9.0 0.00 0.00 0.00 84 1006.3
20180721065945 68 142 3.0 9.0 0.00 0.00 0.00 84 1006.3
20180721065827 68 131 2.0 9.0 0.00 0.00 0.00 84 1006.3
20180721065705 68 144 2.0 8.0 0.00 0.00 0.00 84 1006.3
20180721065543 68 142 3.0 8.0 0.00 0.00 0.00 84 1006.3
20180721065421 68 148 5.0 9.0 0.00 0.00 0.00 84 1006.3
20180721065300 68 136 3.0 9.0 0.00 0.00 0.00 84 1006.3
20180721065143 68 144 1.0 13.0 0.00 0.00 0.00 84 1006.3
20180721065021 68 140 3.0 13.0 0.00 0.00 0.00 84 1006.3
20180721064859 68 152 3.0 13.0 0.00 0.00 0.00 84 1006.4
20180721064737 68 157 6.0 13.0 0.00 0.00 0.00 84 1006.4
20180721064620 68 130 5.0 13.0 0.00 0.00 0.00 84 1006.4
20180721064458 68 147 7.0 13.0 0.00 0.00 0.00 84 1006.4
20180721064335 68 126 3.0 13.0 0.00 0.00 0.00 84 1006.5
20180721064213 68 136 3.0 10.0 0.00 0.00 0.00 84 1006.4
20180721064054 68 139 3.0 10.0 0.00 0.00 0.00 84 1006.4
20180721063932 68 129 3.0 10.0 0.00 0.00 0.00 84 1006.4
20180721063809 68 154 5.0 12.0 0.00 0.00 0.00 83 1006.5
20180721063647 68 144 4.0 14.0 0.00 0.00 0.00 83 1006.5
20180721063525 68 159 3.0 16.0 0.00 0.00 0.00 83 1006.6
20180721063406 68 155 3.0 16.0 0.00 0.00 0.00 83 1006.6
20180721063243 68 136 4.0 16.0 0.00 0.00 0.00 83 1006.5
20180721063121 68 157 6.0 16.0 0.00 0.00 0.00 83 1006.5
20180721062959 68 142 9.0 16.0 0.00 0.00 0.00 83 1006.6
20180721062840 68 149 7.0 16.0 0.00 0.00 0.00 83 1006.5
20180721062718 68 161 3.0 13.0 0.00 0.00 0.00 83 1006.6
20180721062556 68 146 4.0 13.0 0.00 0.00 0.00 83 1006.5
20180721062434 68 146 4.0 13.0 0.00 0.00 0.00 83 1006.5
20180721062316 68 136 6.0 13.0 0.00 0.00 0.00 83 1006.5
20180721062153 68 143 3.0 13.0 0.00 0.00 0.00 83 1006.5
20180721062031 68 150 4.0 13.0 0.00 0.00 0.00 83 1006.5
20180721061908 68 142 7.0 13.0 0.00 0.00 0.00 83 1006.5
20180721061746 68 154 3.0 9.0 0.00 0.00 0.00 83 1006.5
20180721061628 68 132 1.0 9.0 0.00 0.00 0.00 83 1006.6
20180721061506 68 134 1.0 9.0 0.00 0.00 0.00 83 1006.5
20180721061344 68 145 1.0 9.0 0.00 0.00 0.00 83 1006.5
20180721061222 68 148 3.0 10.0 0.00 0.00 0.00 83 1006.5
20180721061047 68 153 4.0 10.0 0.00 0.00 0.00 83 1006.6
20180721060924 68 192 4.0 10.0 0.00 0.00 0.00 83 1006.5
20180721060801 68 148 5.0 10.0 0.00 0.00 0.00 83 1006.6
20180721060639 68 150 4.0 13.0 0.00 0.00 0.00 83 1006.6
20180721060503 68 157 6.0 13.0 0.00 0.00 0.00 83 1006.5
20180721060340 68 147 6.0 13.0 0.00 0.00 0.00 83 1006.5
20180721060217 68 153 6.0 13.0 0.00 0.00 0.00 83 1006.5
20180721060153 68 163 6.0 13.0 0.00 0.00 0.00 83 1006.5
20180721060016 68 123 7.0 13.0 0.00 0.00 0.00 83 1006.6
20180721055923 68 151 6.0 13.0 0.00 0.00 0.00 83 1006.5
20180721055825 68 157 4.0 13.0 0.00 0.00 0.00 83 1006.6
20180721055727 68 153 4.0 13.0 0.00 0.00 0.00 83 1006.6
20180721055629 68 149 7.0 13.0 0.00 0.00 0.00 83 1006.6
20180721055532 68 158 4.0 13.0 0.00 0.00 0.00 83 1006.6
20180721055434 68 158 4.0 13.0 0.00 0.00 0.00 83 1006.7
20180721055321 68 148 6.0 13.0 0.00 0.00 0.00 83 1006.7
20180721055223 68 145 7.0 13.0 0.00 0.00 0.00 83 1006.7
20180721055125 68 147 8.0 13.0 0.00 0.00 0.00 83 1006.7
20180721055027 68 151 9.0 13.0 0.00 0.00 0.00 83 1006.7
20180721054929 68 145 6.0 12.0 0.00 0.00 0.00 82 1006.7
20180721054832 69 165 4.0 11.0 0.00 0.00 0.00 82 1006.7
20180721054718 69 149 4.0 11.0 0.00 0.00 0.00 82 1006.7
20180721054620 69 150 4.0 11.0 0.00 0.00 0.00 82 1006.7
20180721054522 69 154 5.0 11.0 0.00 0.00 0.00 82 1006.7
20180721054425 69 153 5.0 11.0 0.00 0.00 0.00 82 1006.7
20180721054327 69 148 4.0 11.0 0.00 0.00 0.00 82 1006.7
20180721054230 69 138 5.0 11.0 0.00 0.00 0.00 82 1006.7
20180721054117 69 143 6.0 14.0 0.00 0.00 0.00 82 1006.7
20180721054019 69 145 6.0 14.0 0.00 0.00 0.00 82 1006.7
20180721053921 69 147 5.0 14.0 0.00 0.00 0.00 82 1006.7
20180721053822 69 147 5.0 14.0 0.00 0.00 0.00 82 1006.7
20180721053725 69 140 5.0 14.0 0.00 0.00 0.00 82 1006.7
20180721053627 69 135 5.0 14.0 0.00 0.00 0.00 81 1006.7
20180721053534 69 146 6.0 14.0 0.00 0.00 0.00 81 1006.8
20180721053416 69 143 8.0 14.0 0.00 0.00 0.00 81 1006.8
20180721053318 69 140 7.0 12.0 0.00 0.00 0.00 81 1006.8
20180721053221 69 142 6.0 12.0 0.00 0.00 0.00 81 1006.8
20180721053124 69 136 5.0 12.0 0.00 0.00 0.00 81 1006.8
20180721053026 69 155 5.0 12.0 0.00 0.00 0.00 81 1006.8
20180721052932 69 146 4.0 12.0 0.00 0.00 0.00 81 1006.8
20180721052834 69 136 2.0 12.0 0.00 0.00 0.00 81 1006.8
20180721052715 69 153 2.0 10.0 0.00 0.00 0.00 81 1006.8
20180721052617 69 155 3.0 10.0 0.00 0.00 0.00 81 1006.8
20180721052519 69 137 5.0 11.0 0.00 0.00 0.00 81 1006.8
20180721052421 69 162 5.0 11.0 0.00 0.00 0.00 81 1006.8
20180721052327 69 150 5.0 12.0 0.00 0.00 0.00 81 1006.8
20180721052230 69 143 3.0 12.0 0.00 0.00 0.00 81 1006.8
20180721052131 69 145 1.0 12.0 0.00 0.00 0.00 81 1006.7
20180721052034 69 150 2.0 12.0 0.00 0.00 0.00 81 1006.8
20180721051916 69 153 5.0 12.0 0.00 0.00 0.00 81 1006.8
20180721051818 69 145 6.0 12.0 0.00 0.00 0.00 81 1006.8
20180721051725 69 137 6.0 15.0 0.00 0.00 0.00 81 1006.8
20180721051627 69 157 7.0 15.0 0.00 0.00 0.00 81 1006.8
20180721051530 69 157 8.0 16.0 0.00 0.00 0.00 81 1006.8
20180721051432 69 136 8.0 16.0 0.00 0.00 0.00 81 1006.8
20180721051315 69 155 7.0 16.0 0.00 0.00 0.00 81 1006.8
20180721051216 69 142 6.0 16.0 0.00 0.00 0.00 81 1006.8
20180721051123 69 144 8.0 16.0 0.00 0.00 0.00 81 1006.9
20180721051025 69 151 9.0 16.0 0.00 0.00 0.00 81 1006.9
20180721050928 69 148 8.0 16.0 0.00 0.00 0.00 81 1006.9
20180721050830 69 155 8.0 16.0 0.00 0.00 0.00 81 1006.9
20180721050732 69 165 8.0 16.0 0.00 0.00 0.00 81 1006.9
20180721050615 69 127 8.0 12.0 0.00 0.00 0.00 81 1007.0
20180721050521 69 138 6.0 13.0 0.00 0.00 0.00 81 1006.9
20180721050423 69 157 5.0 13.0 0.00 0.00 0.00 81 1006.9
20180721050325 69 146 5.0 14.0 0.00 0.00 0.00 81 1006.9
20180721050227 69 137 6.0 14.0 0.00 0.00 0.00 80 1006.9
20180721050129 69 138 6.0 14.0 0.00 0.00 0.00 80 1006.9
20180721050030 69 145 4.0 14.0 0.00 0.00 0.00 80 1006.9
20180721045916 69 153 5.0 14.0 0.00 0.00 0.00 80 1006.9
20180721045818 69 152 8.0 14.0 0.00 0.00 0.00 80 1006.9
20180721045720 69 137 10.0 14.0 0.00 0.00 0.00 80 1006.9
20180721045622 69 155 10.0 14.0 0.00 0.00 0.00 80 1006.9
20180721045524 69 147 8.0 14.0 0.00 0.00 0.00 80 1006.9
20180721045426 69 148 5.0 11.0 0.00 0.00 0.00 80 1006.9
20180721045329 69 148 2.0 10.0 0.00 0.00 0.00 80 1006.9
20180721045215 69 153 4.0 12.0 0.00 0.00 0.00 80 1006.9
20180721045117 69 154 6.0 12.0 0.00 0.00 0.00 80 1006.9
20180721045020 69 155 4.0 12.0 0.00 0.00 0.00 80 1006.9
20180721044922 69 141 4.0 12.0 0.00 0.00 0.00 80 1006.9
20180721044826 69 136 6.0 12.0 0.00 0.00 0.00 80 1006.9
20180721044727 69 165 4.0 12.0 0.00 0.00 0.00 80 1006.9
20180721044633 69 146 4.0 12.0 0.00 0.00 0.00 80 1006.9
20180721044516 69 142 4.0 12.0 0.00 0.00 0.00 79 1007.0
20180721044418 69 148 3.0 9.0 0.00 0.00 0.00 79 1007.0
20180721044320 69 134 3.0 9.0 0.00 0.00 0.00 79 1006.9
20180721044223 69 177 3.0 9.0 0.00 0.00 0.00 79 1007.0
20180721044124 69 161 4.0 10.0 0.00 0.00 0.00 79 1007.0
20180721044030 69 159 4.0 10.0 0.00 0.00 0.00 79 1007.0
20180721043933 69 145 4.0 10.0 0.00 0.00 0.00 79 1007.0
20180721043815 69 155 5.0 10.0 0.00 0.00 0.00 79 1007.0
20180721043718 69 161 5.0 10.0 0.00 0.00 0.00 79 1007.0
20180721043620 69 152 5.0 12.0 0.00 0.00 0.00 79 1007.0
20180721043522 69 157 6.0 12.0 0.00 0.00 0.00 79 1007.0
20180721043429 69 165 7.0 12.0 0.00 0.00 0.00 79 1007.0
20180721043331 69 151 6.0 12.0 0.00 0.00 0.00 79 1007.0
20180721043233 69 147 4.0 14.0 0.00 0.00 0.00 79 1007.0
20180721043116 69 156 3.0 14.0 0.00 0.00 0.00 79 1007.0
20180721043018 69 154 5.0 14.0 0.00 0.00 0.00 79 1007.0
20180721042920 69 155 7.0 14.0 0.00 0.00 0.00 79 1007.0
20180721042826 69 154 6.0 14.0 0.00 0.00 0.00 79 1007.0
20180721042729 69 169 5.0 14.0 0.00 0.00 0.00 79 1007.0
20180721042631 69 148 6.0 14.0 0.00 0.00 0.00 79 1007.0
20180721042533 69 157 9.0 14.0 0.00 0.00 0.00 79 1007.0
20180721042416 69 140 8.0 15.0 0.00 0.00 0.00 79 1007.0
20180721042318 69 156 7.0 17.0 0.00 0.00 0.00 79 1007.0
20180721042224 69 157 6.0 17.0 0.00 0.00 0.00 79 1007.0
20180721042127 69 190 5.0 17.0 0.00 0.00 0.00 79 1007.1
20180721042030 69 155 7.0 18.0 0.00 0.00 0.00 78 1007.1
20180721041932 69 153 8.0 18.0 0.00 0.00 0.00 78 1007.0
20180721041834 69 161 8.0 18.0 0.00 0.00 0.00 78 1007.0
20180721041715 69 153 8.0 18.0 0.00 0.00 0.00 78 1007.1
20180721041622 69 142 11.0 18.0 0.00 0.00 0.00 78 1007.1
20180721041524 70 157 12.0 18.0 0.00 0.00 0.00 78 1007.0
20180721041427 70 140 9.0 18.0 0.00 0.00 0.00 78 1007.0
20180721041329 70 135 10.0 18.0 0.00 0.00 0.00 78 1007.0
20180721041232 70 141 12.0 18.0 0.00 0.00 0.00 78 1007.0
20180721041134 70 175 12.0 17.0 0.00 0.00 0.00 78 1007.0
20180721041019 70 162 10.0 16.0 0.00 0.00 0.00 78 1007.0
20180721040922 70 162 6.0 16.0 0.00 0.00 0.00 78 1006.9
20180721040824 70 159 9.0 16.0 0.00 0.00 0.00 78 1006.9
20180721040726 70 161 11.0 16.0 0.00 0.00 0.00 78 1006.9
20180721040628 70 190 10.0 16.0 0.00 0.00 0.00 78 1006.9
20180721040530 70 140 8.0 15.0 0.00 0.00 0.00 78 1006.9
20180721040417 70 144 7.0 12.0 0.00 0.00 0.00 78 1006.9
20180721040319 70 153 7.0 11.0 0.00 0.00 0.00 78 1006.9
20180721040221 70 142 7.0 10.0 0.00 0.00 0.00 78 1006.9
20180721040123 70 150 4.0 12.0 0.00 0.00 0.00 78 1006.9
20180721040043 70 132 4.0 12.0 0.00 0.00 0.00 78 1006.9
20180721035920 70 148 4.0 13.0 0.00 0.00 0.00 78 1006.9
20180721035802 70 154 6.0 13.0 0.00 0.00 0.00 78 1006.9
20180721035640 70 154 7.0 13.0 0.00 0.00 0.00 78 1006.9
20180721035518 70 155 7.0 13.0 0.00 0.00 0.00 78 1006.9
20180721035355 70 162 6.0 13.0 0.00 0.00 0.00 78 1006.9
20180721035236 70 144 7.0 13.0 0.00 0.00 0.00 78 1006.9
20180721035114 70 134 6.0 12.0 0.00 0.00 0.00 78 1006.9
20180721034952 70 150 6.0 12.0 0.00 0.00 0.00 78 1006.9
20180721034831 70 143 7.0 13.0 0.00 0.00 0.00 78 1006.9
20180721034709 70 156 8.0 16.0 0.00 0.00 0.00 78 1006.9
20180721034551 70 154 8.0 16.0 0.00 0.00 0.00 79 1006.9
20180721034428 70 146 7.0 16.0 0.00 0.00 0.00 79 1006.9
20180721034306 70 163 5.0 16.0 0.00 0.00 0.00 79 1006.9
20180721034143 70 144 7.0 16.0 0.00 0.00 0.00 79 1006.9
20180721034025 70 130 9.0 16.0 0.00 0.00 0.00 79 1007.0
20180721033902 70 155 6.0 14.0 0.00 0.00 0.00 79 1007.0
20180721033740 70 130 6.0 14.0 0.00 0.00 0.00 79 1007.0
20180721033616 70 156 5.0 14.0 0.00 0.00 0.00 79 1007.0
20180721033458 70 149 7.0 14.0 0.00 0.00 0.00 79 1007.0
20180721033336 70 149 9.0 14.0 0.00 0.00 0.00 80 1007.0
20180721033214 70 124 6.0 13.0 0.00 0.00 0.00 80 1007.1
20180721033052 70 144 2.0 10.0 0.00 0.00 0.00 80 1007.0
20180721032931 70 144 2.0 10.0 0.00 0.00 0.00 80 1007.1
20180721032813 70 142 2.0 10.0 0.00 0.00 0.00 80 1007.1
20180721032654 70 146 3.0 10.0 0.00 0.00 0.00 80 1007.1
20180721032532 70 128 5.0 10.0 0.00 0.00 0.00 80 1007.1
20180721032410 70 142 5.0 10.0 0.00 0.00 0.00 80 1007.1
20180721032251 70 140 3.0 9.0 0.00 0.00 0.00 80 1007.1
20180721032129 70 138 3.0 10.0 0.00 0.00 0.00 80 1007.1
20180721032008 70 137 3.0 10.0 0.00 0.00 0.00 80 1007.2
20180721031845 70 137 3.0 10.0 0.00 0.00 0.00 80 1007.2
20180721031728 70 129 2.0 10.0 0.00 0.00 0.00 80 1007.2
20180721031605 70 142 2.0 10.0 0.00 0.00 0.00 80 1007.2
20180721031443 70 144 5.0 10.0 0.00 0.00 0.00 80 1007.2
20180721031321 70 136 6.0 10.0 0.00 0.00 0.00 80 1007.2
20180721031200 70 141 3.0 9.0 0.00 0.00 0.00 80 1007.3
20180721031045 70 145 3.0 9.0 0.00 0.00 0.00 80 1007.3
20180721030919 70 146 4.0 9.0 0.00 0.00 0.00 80 1007.3
20180721030757 70 146 5.0 9.0 0.00 0.00 0.00 80 1007.3
20180721030634 70 144 5.0 9.0 0.00 0.00 0.00 80 1007.4
20180721030516 70 148 3.0 8.0 0.00 0.00 0.00 80 1007.3
20180721030354 70 144 4.0 8.0 0.00 0.00 0.00 80 1007.3
20180721030230 70 140 1.0 8.0 0.00 0.00 0.00 80 1007.3
20180721030109 70 138 2.0 8.0 0.00 0.00 0.00 80 1007.3
20180721025950 70 136 3.0 8.0 0.00 0.00 0.00 80 1007.3
20180721025828 70 144 1.0 6.0 0.00 0.00 0.00 80 1007.3
20180721025706 70 144 1.0 5.0 0.00 0.00 0.00 80 1007.3
20180721025545 70 144 0.0 5.0 0.00 0.00 0.00 80 1007.4
20180721025422 70 144 1.0 5.0 0.00 0.00 0.00 80 1007.3
20180721025303 70 144 1.0 5.0 0.00 0.00 0.00 80 1007.4
20180721025141 70 144 1.0 6.0 0.00 0.00 0.00 80 1007.4
20180721025020 70 144 0.0 6.0 0.00 0.00 0.00 79 1007.4
20180721024858 70 145 2.0 6.0 0.00 0.00 0.00 79 1007.5
20180721024739 70 144 1.0 6.0 0.00 0.00 0.00 79 1007.5
20180721024616 70 144 1.0 6.0 0.00 0.00 0.00 79 1007.6
20180721024454 70 144 3.0 9.0 0.00 0.00 0.00 79 1007.6
20180721024333 70 145 1.0 9.0 0.00 0.00 0.00 79 1007.5
20180721024215 70 146 2.0 9.0 0.00 0.00 0.00 79 1007.6
20180721024052 70 146 3.0 9.0 0.00 0.00 0.00 79 1007.6
20180721023925 70 138 3.0 9.0 0.00 0.00 0.00 79 1007.6
20180721023803 70 140 3.0 9.0 0.00 0.00 0.00 79 1007.6
20180721023641 70 138 4.0 10.0 0.00 0.00 0.00 79 1007.6
20180721023521 70 142 4.0 10.0 0.00 0.00 0.00 79 1007.5
20180721023358 70 146 1.0 7.0 0.00 0.00 0.00 79 1007.5
20180721023236 70 141 1.0 7.0 0.00 0.00 0.00 79 1007.5
20180721023116 70 141 1.0 7.0 0.00 0.00 0.00 79 1007.5
20180721022958 70 140 1.0 7.0 0.00 0.00 0.00 79 1007.4
20180721022835 70 140 1.0 8.0 0.00 0.00 0.00 79 1007.4
20180721022714 70 140 3.0 8.0 0.00 0.00 0.00 79 1007.4
20180721022552 70 138 3.0 8.0 0.00 0.00 0.00 79 1007.4
20180721022434 70 140 2.0 8.0 0.00 0.00 0.00 79 1007.4
20180721022312 71 141 2.0 8.0 0.00 0.00 0.00 79 1007.4
20180721022151 71 142 2.0 8.0 0.00 0.00 0.00 79 1007.4
20180721022029 71 142 1.0 8.0 0.00 0.00 0.00 78 1007.4
20180721021906 71 148 1.0 6.0 0.00 0.00 0.00 78 1007.4
20180721021747 71 148 2.0 6.0 0.00 0.00 0.00 78 1007.3
20180721021625 71 150 1.0 6.0 0.00 0.00 0.00 78 1007.3
20180721021502 71 149 1.0 6.0 0.00 0.00 0.00 78 1007.3
20180721021341 71 153 3.0 6.0 0.00 0.00 0.00 78 1007.3
20180721021205 71 148 2.0 6.0 0.00 0.00 0.00 78 1007.3
20180721021042 71 144 1.0 6.0 0.00 0.00 0.00 78 1007.3
20180721020920 71 145 3.0 6.0 0.00 0.00 0.00 78 1007.3
20180721020758 71 148 3.0 6.0 0.00 0.00 0.00 78 1007.3
20180721020640 71 146 1.0 6.0 0.00 0.00 0.00 78 1007.4
20180721020518 71 146 2.0 6.0 0.00 0.00 0.00 78 1007.3
20180721020356 71 148 2.0 7.0 0.00 0.00 0.00 78 1007.3
20180721020234 71 149 2.0 7.0 0.00 0.00 0.00 78 1007.3
20180721020115 71 149 1.0 7.0 0.00 0.00 0.00 78 1007.3
20180721015951 71 154 1.0 7.0 0.00 0.00 0.00 78 1007.3
20180721015830 71 155 2.0 7.0 0.00 0.00 0.00 78 1007.2
20180721015707 71 151 3.0 7.0 0.00 0.00 0.00 78 1007.3
20180721015545 71 158 1.0 7.0 0.00 0.00 0.00 78 1007.3
20180721015427 71 159 2.0 9.0 0.00 0.00 0.00 77 1007.3
20180721015306 71 158 1.0 9.0 0.00 0.00 0.00 77 1007.2
20180721015144 71 163 1.0 9.0 0.00 0.00 0.00 77 1007.2
20180721015022 71 135 1.0 9.0 0.00 0.00 0.00 77 1007.2
20180721014903 71 132 4.0 11.0 0.00 0.00 0.00 77 1007.1
20180721014743 71 138 4.0 11.0 0.00 0.00 0.00 77 1007.1
20180721014620 71 138 3.0 11.0 0.00 0.00 0.00 77 1007.1
20180721014457 71 147 4.0 11.0 0.00 0.00 0.00 77 1007.1
20180721014340 71 150 5.0 11.0 0.00 0.00 0.00 77 1007.1
20180721014218 71 156 6.0 11.0 0.00 0.00 0.00 77 1007.1
20180721014056 71 127 6.0 11.0 0.00 0.00 0.00 77 1007.2
20180721013934 71 132 4.0 7.0 0.00 0.00 0.00 77 1007.1
20180721013811 71 149 1.0 6.0 0.00 0.00 0.00 78 1007.1
20180721013653 71 134 2.0 6.0 0.00 0.00 0.00 78 1007.2
20180721013532 71 128 2.0 6.0 0.00 0.00 0.00 78 1007.1
20180721013410 72 129 1.0 6.0 0.00 0.00 0.00 78 1007.1
20180721013248 72 144 0.0 6.0 0.00 0.00 0.00 78 1007.1
20180721013131 72 142 1.0 7.0 0.00 0.00 0.00 77 1007.1
20180721013008 72 142 0.0 7.0 0.00 0.00 0.00 77 1007.1
20180721012846 72 140 1.0 7.0 0.00 0.00 0.00 77 1007.1
20180721012724 72 140 3.0 7.0 0.00 0.00 0.00 77 1007.1
20180721012548 72 145 0.0 7.0 0.00 0.00 0.00 78 1007.1
20180721012428 72 148 1.0 7.0 0.00 0.00 0.00 78 1007.1
20180721012308 72 145 2.0 7.0 0.00 0.00 0.00 78 1007.1
20180721012145 72 155 0.0 5.0 0.00 0.00 0.00 78 1007.1
20180721012026 72 155 0.0 7.0 0.00 0.00 0.00 77 1007.1
20180721011903 72 155 1.0 7.0 0.00 0.00 0.00 77 1007.0
20180721011741 72 155 0.0 7.0 0.00 0.00 0.00 77 1007.1
20180721011619 72 156 2.0 9.0 0.00 0.00 0.00 77 1007.1
20180721011457 72 156 2.0 9.0 0.00 0.00 0.00 77 1007.0
20180721011339 72 156 3.0 9.0 0.00 0.00 0.00 77 1007.0